Regional Weather Roundup
Issued by NWS San Diego, CA

Home | Current Version | Previous Version | Text Only | Print | Product List | Glossary On
Versions: 1 2 3 4 5 6 7 8 9 10 11 12 13 14 15 16 17 18 19 20 21 22 23 24 25 26 27 28 29 30 31 32 33 34 35 36 37 38 39 40 41 42 43 44 45 46 47 48 49 50
000
ASUS46 KSGX 270410
RWRSGX

SAN DIEGO HOURLY WEATHER ROUNDUP
NATIONAL WEATHER SERVICE SAN DIEGO CA
800 PM PST MON JAN 26 2015

NOTE: "FAIR" INDICATES FEW OR NO CLOUDS BELOW 12,000 FEET WITH NO
SIGNIFICANT WEATHER AND/OR OBSTRUCTIONS TO VISIBILITY.

CAZ042-043-060-061-PZZ750-775-270500-

GREATER SAN DIEGO AREA

CITY           SKY/WX    TMP DP  RH WIND       PRES   REMARKS
LINDBERGH FLD  MOCLDY    61  48  62 NE5       30.07S
POINT LOMA       N/A     58  49  71 NE6         N/A
CHULA VISTA      N/A     59  52  77 CALM      30.00R
IMPERIAL BEACH MOCLDY    59  48  67 E5        30.07R
BROWN FIELD    CLEAR     58  50  75 NE7       30.06S
MIRAMAR MCAS   MOCLDY    58  50  75 NE9       30.07R
MONTGOMERY FLD MOCLDY    58  50  75 NE9       30.07R

$$

NORTH SAN DIEGO COUNTY

CITY           SKY/WX    TMP DP  RH WIND       PRES   REMARKS
CAMP PENDLETON MOCLDY    57  52  83 CALM      30.08R
OCEANSIDE AP   CLOUDY    57  53  86 N3        30.07R
VISTA            N/A     54  49  84 CALM      30.06R
CARLSBAD       CLOUDY    57  50  77 E3        30.07R
DEL MAR          N/A     55  51  87 CALM      30.09R
FALLBROOK        N/A     54  54 100 CALM      30.09R
SAN MARCOS       N/A     55  49  82 CALM      30.05S
POWAY            N/A     55  52  90 CALM      30.09R

$$

EAST SAN DIEGO COUNTY

CITY           SKY/WX    TMP DP  RH WIND       PRES   REMARKS
RAMONA         MOCLDY    52  50  93 E3        30.09R
SANTEE LAKES     N/A     56  52  88 CALM      30.09R
LA MESA          N/A     57  51  80 NE3       30.01S
JAMUL            N/A     52  48  85 CALM      30.06S
DESCANSO N       N/A     54  47  78 E9        29.95R
MT. LAGUNA OBS   N/A     42  42 100 S5        29.71R
CAMPO            N/A     52  47  83 E8        30.06R

$$

ORANGE COUNTY AND THE LOS ANGELES BASIN

CITY           SKY/WX    TMP DP  RH WIND       PRES   REMARKS
JOHN WAYNE AP  CLOUDY    60  53  77 NE6       30.08F
LAGUNA BEACH     N/A     56  54  94 N3        30.05R
LAKE FOREST FR   N/A     53  49  87 E1        29.98S
SANTA ANA        N/A     59  54  84 NE2       30.05R
HUNTINGTON BCH   N/A     57  55  91 E2        30.11R
LOS ALAMITOS   CLOUDY    57  54  88 NE6       30.09S
FULLERTON      LGT RAIN  57  53  86 E3        30.09R
LONG BEACH     RAIN      57  54  89 E6        30.09R
L.A. AP        RAIN      58  52  80 E5        30.10R
L.A. DOWNTOWN  LGT RAIN  58  51  78 VRB5      30.09R

$$

THE INLAND EMPIRE

CITY           SKY/WX    TMP DP  RH WIND       PRES   REMARKS
CORONA         MOCLDY    55  55 100 CALM      30.10R
CHINO          LGT RAIN  55  53  93 W7        30.10R
ONTARIO        LGT RAIN  55  53  93 W10       30.09R FOG
SAN BERNARDINO CLOUDY    55  52  88 CALM      30.09R
RIVERSIDE AP   CLOUDY    56  54  93 W5        30.09R
RIV CYN CREST    N/A     57  57 100 CALM        N/A
MORENO VALLEY    N/A     55  54  99 E6        29.28R
MARCH ARB      LGT RAIN  54  54 100 NW3       30.08R
HORSETHIEF CYN   N/A     54  51  89 SW2       30.01R
PERRIS           N/A     54  53  97 CALM        N/A
MENIFEE          N/A     56  55  97 CALM      30.15R
HEMET EAST       N/A     53  49  88 CALM      30.05R
FRENCH VALLEY  CLOUDY    54  52  94 CALM      30.09R
TEMECULA         N/A     55  54  97 W1        30.05R

$$

SAN BERNARDINO AND RIVERSIDE COUNTY MOUNTAINS

CITY           SKY/WX    TMP DP  RH WIND       PRES   REMARKS
BIG BEAR AP    RAIN      37  36  93 W5        30.14R WCI  34
PINE COVE        N/A     42  41  95 SE2       30.00R

$$

SOUTHERN DESERT INCLUDING THE COACHELLA VALLEY

CITY           SKY/WX    TMP DP  RH WIND       PRES   REMARKS
PALM SPRINGS   LGT RAIN  58  55  90 E5        30.14R
PALM DESERT      N/A     58  55  91 CALM        N/A
THERMAL        CLOUDY    57  56  96 CALM      30.12R
BLYTHE         CLOUDY    55  53  93 N7        30.14R
IMPERIAL AP    CLOUDY    57  55  93 CALM      30.13R
EL CENTRO NAS  CLOUDY    57  56  96 W3        30.13R
YUMA AZ        CLOUDY    57  51  80 NE9       30.12R
MEXICALI       CLOUDY    57  57 100 NW3       30.13

$$

UPPER DESERT

CITY           SKY/WX    TMP DP  RH WIND       PRES   REMARKS
VICTORVILLE AP CLOUDY    48  46  93 CALM      30.10R
HESPERIA         N/A     48  46  93 CALM      30.22R
APPLE VALLEY     N/A     50  47  88 CALM      30.14S
PALMDALE       CLOUDY    51  48  89 NE15      30.10R
LANCASTER      CLOUDY    50  47  89 NE10      30.12R
EDWARDS AFB    CLOUDY    51  49  91 NE12      30.10R
DAGGETT        LGT RAIN  52  48  86 NE13      30.12S
29 PALMS N     CLOUDY    51  48  89 SE12      30.20R
NEEDLES        RAIN      56  50  80 SW5       30.15R

$$

REGIONAL REPORTS

CITY           SKY/WX    TMP DP  RH WIND       PRES   REMARKS
SANTA BARBARA  CLOUDY    63  52  67 SE6       30.05R
SANDBERG       LGT RAIN  46  42  86 E22G31    30.11R FOG
MT. WILSON       N/A    N/A N/A N/A MISG        N/A
LAS VEGAS NV   CLOUDY    58  47  66 SW12      30.10R
PHOENIX AZ     CLOUDY    61  45  55 SE3       30.13R
TIJUANA        MOCLDY    59  46  63 N8        30.08S

$$

OFFSHORE ISLANDS

CITY           SKY/WX    TMP DP  RH WIND       PRES   REMARKS
CATALINA ARPT  LGT RAIN  56  43  61 W5        30.09S
SAN NICOLAS IS MOCLDY   N/A N/A N/A SW13      30.05R

$$

MARINE AND OFFSHORE BUOY REPORTS

STATION/POSITION SKY/WX   TEMP    WIND        PRES    SWELL
                          AIR SEA DIR/SP/G            HT/PER/DIR
                          (F)     (DEG/KT/KT) (MB)    (FT/S/D)
TANNER BANKS               62 62  170/  4/  6 1017.1R   8/250/16
S CLEMENTE BASIN           63 63   40/  8/ 10 1017.7F   7/280/14
SAN NICOLAS IS.               63                N/A     7/290/14
SO. S. ROSA ISLA           62 61   80/  4/  8 1016.7R   7/15
W. S. BARBARA CH           62 60  120/ 12/ 14 1016.4R   7/270/15
S. MONICA BASIN            60 62   90/ 14/ 17 1018.5R   3/270/16
S PEDRO CHANNEL               62                N/A     3/270/13
DANA POINT                    62                N/A     3/260/13
CMP PENDLETON NS              62                N/A     3/240/13
OCEANSIDE OFFSHR              62                N/A     3/260/15
TORREY PINES OTR              62                N/A     3/270/17
LA JOLLA 1                 62 62   60/  7/  8 1018.2R
MISSION BAY BUOY              62                N/A     3/270/15
SAN DIEGO BAY                 62              1018.5S
POINT LOMA SOUTH              62                N/A     3/260/14

$$




USA.gov is the U.S. government's official web portal to all federal, state and local government web resources and services.